Location: Domachevo
(51.7500°N, 23.6000°E)
Time: 08:26:39
(UTC+03:00)

Envisat - Visible Passes

Search period start: 23 September 2017 00:00
Search period end: 03 October 2017 00:00
Orbit: 764 x 766 km, 98.2° (Epoch: 22 September)

Date Brightness Start Highest point End Pass type
(mag) Time Alt. Az. Time Alt. Az. Time Alt. Az.
23 Sep 3.4 20:15:18 10° SE 20:20:03 42° ENE 20:24:50 10° N visible
23 Sep 4.5 21:54:36 10° SSW 21:59:11 33° W 22:03:48 10° NNW visible
24 Sep 3.3 21:17:14 10° S 21:22:16 65° WSW 21:27:21 10° NNW visible
24 Sep 5.9 23:01:22 10° W 23:02:19 10° W 23:03:16 10° WNW visible
25 Sep 3.0 20:40:32 10° SSE 20:45:33 66° ENE 20:50:37 10° N visible
25 Sep 5.2 22:21:13 10° SW 22:25:03 21° W 22:28:54 10° NW visible
26 Sep 3.7 20:04:26 10° SE 20:09:01 35° ENE 20:13:38 10° N visible
26 Sep 4.2 21:43:23 11° SSW 21:48:00 40° W 21:52:49 10° NNW visible
27 Sep 3.1 21:06:25 12° SSE 21:11:09 79° WSW 21:16:17 10° NNW visible
27 Sep 5.7 22:48:40 10° WSW 22:51:02 13° W 22:53:24 10° WNW visible
28 Sep 3.1 20:29:33 10° SE 20:34:29 55° ENE 20:39:28 10° N visible
28 Sep 4.9 22:09:39 10° SSW 22:13:49 26° W 22:18:04 10° NW visible
29 Sep 3.9 19:53:39 10° ESE 19:58:01 30° ENE 20:02:24 10° N visible
29 Sep 3.8 21:32:41 14° S 21:36:50 49° W 21:41:48 10° NNW visible
30 Sep 2.9 20:55:42 14° SSE 21:00:02 86° ENE 21:05:10 10° NNW visible
30 Sep 5.5 22:36:38 10° SW 22:39:46 16° W 22:42:54 10° NW visible
01 Oct 3.3 20:18:43 11° SE 20:23:26 45° ENE 20:28:17 10° N visible
01 Oct 4.6 21:58:57 14° SSW 22:02:37 31° W 22:07:08 10° NNW visible
02 Oct 4.1 19:42:55 10° ESE 19:47:01 25° ENE 19:51:08 10° N visible
02 Oct 3.4 21:21:58 18° S 21:25:42 60° W 21:30:45 10° NNW visible
